sat.trackr.live / text

‹ back to catalog

SPAWAR-CAL-R

NORAD 43776 · 2018-099U

PAYLOAD ACTIVE UNKNOWN

§ Identity

Operator
Country
US
Launch date
2018-12-03
Launch site
AFWTR
Launch vehicle
Mass (kg)
RCS (m²)

External: N2YO · Heavens-Above · Gunter

§ Orbital elements

Epoch: 2026-05-25T02:07:26.956416Z

Period
95.65 min
Inclination
97.4395°
Eccentricity
0.0021791
Mean motion
15.05539547 rev/d
Perigee alt
534.8 km
Apogee alt
564.9 km
Semi-major
6,928.0 km
B*
9.3781e-5
RAAN
186.3131°
Arg perigee
80.6071°
Mean anomaly
279.7619°
Rev number
40,852

§ Raw data

SPAWAR-CAL-R1 43776U 18099U   26145.08850644  .00001297  00000+0  93781-4 0  99972 43776  97.4395 186.3131 0021791  80.6071 279.7619 15.05539547408525

JSON: /api/v1/satellites/43776 · /tle

For live sub-satellite position, see the globe view (requires WebGL).

§ Visibility from observer

Set your observer location to see the next 7 days of passes ≥ 10°. The values pass through the URL so the page stays shareable.

No JS? Fill the form by hand. The geolocation button needs JavaScript.